Weather History for KFDY - November, 2013

Change the Weather History Date:

Thursday, November 7, 2013

  Actual Average Record
Temperature  
Mean Temperature 42 °F -  
Max Temperature 46 °F 48 °F - (-1)
Min Temperature 39 °F 34 °F - (-1)
Degree Days  
Heating Degree Days 22    
Moisture  
Dew Point 34 °F    
Average Humidity 73    
Maximum Humidity 89    
Minimum Humidity 48    
Precipitation  
Precipitation 0.02 in - - ()
Sea Level Pressure  
Sea Level Pressure 30.11 in    
Wind  
Wind Speed 12 mph (WNW)    
Max Wind Speed 21 mph    
Max Gust Speed 30 mph    
Visibility 10 miles    
Events Rain    
Averages and records for this station are not official NWS values.
T = Trace of Precipitation, MM = Missing Value Source: NWS Daily Summary

Daily Weather History Graph

Daily Weather History Graph

Search for Another Location

Airport or City:

Trip Planner

Search our weather history database for the weather conditions in past years. The results will help you decide how hot, cold, wet, or windy it might be!

Date:

Astronomy

Nov. 07, 2013 Rise Set
Actual Time 7:12 AM EST 5:23 PM EST
Civil Twilight 6:43 AM EST 5:52 PM EST
Nautical Twilight 6:11 AM EST 6:25 PM EST
Astronomical Twilight 5:38 AM EST 6:57 PM EST
Moon 11:21 AM EST (11/7) 9:33 PM EST (11/7)
Length of Visible Light 11h 08m
Length of Day
10h 10m
Waxing Crescent, 22% of the Moon is Illuminated
Nov 7
Waxing Crescent
Nov 10
First Quarter
Nov 17
Full
Nov 25
Last Quarter
Dec 2
New

Hourly Weather History & Observations

Time (EST) Temp. Windchill Dew Point Humidity Pressure Visibility Wind Dir Wind Speed Gust Speed Precip Events Conditions
12:25 AM 44.6 °F 39.2 °F 41.0 °F 87% 30.02 in 10.0 mi WNW 10.4 mph 18.4 mph 0.00 in   Overcast
12:53 AM 44.1 °F 37.7 °F 39.9 °F 85% 30.01 in 10.0 mi WNW 12.7 mph - 0.00 in   Overcast
1:08 AM 42.8 °F 35.8 °F 39.2 °F 87% 30.01 in 10.0 mi NW 13.8 mph 19.6 mph N/A   Mostly Cloudy
1:53 AM 43.0 °F 36.8 °F 39.0 °F 86% 30.03 in 10.0 mi WNW 11.5 mph - N/A   Mostly Cloudy
2:44 AM 42.8 °F 37.0 °F 39.2 °F 87% 30.05 in 10.0 mi WNW 10.4 mph - N/A   Overcast
2:53 AM 43.0 °F 37.2 °F 39.0 °F 86% 30.05 in 10.0 mi WNW 10.4 mph - N/A   Overcast
3:12 AM 42.8 °F 37.5 °F 39.2 °F 87% 30.05 in 10.0 mi WNW 9.2 mph - N/A   Overcast
3:53 AM 42.1 °F 36.6 °F 39.0 °F 89% 30.05 in 10.0 mi WNW 9.2 mph - 0.02 in   Overcast
4:25 AM 42.8 °F 38.6 °F 39.2 °F 87% 30.06 in 10.0 mi WNW 6.9 mph - N/A   Overcast
4:53 AM 42.1 °F 35.2 °F 37.9 °F 85% 30.07 in 10.0 mi WNW 12.7 mph - N/A   Overcast
5:53 AM 41.0 °F 35.2 °F 37.0 °F 86% 30.08 in 10.0 mi WNW 9.2 mph - N/A   Overcast
6:53 AM 39.9 °F 32.5 °F 35.1 °F 83% 30.10 in 9.0 mi WNW 12.7 mph 20.7 mph 0.00 in Rain Light Rain
7:06 AM 39.2 °F 33.0 °F 35.6 °F 87% 30.11 in 10.0 mi West 9.2 mph - 0.00 in Rain Light Rain
7:21 AM 39.2 °F 32.0 °F 35.6 °F 87% 30.12 in 10.0 mi West 11.5 mph - 0.00 in   Mostly Cloudy
7:53 AM 39.0 °F 31.4 °F 32.0 °F 76% 30.14 in 10.0 mi NW 12.7 mph 23.0 mph 0.00 in   Overcast
8:53 AM 39.0 °F 31.4 °F 28.0 °F 65% 30.17 in 10.0 mi WNW 12.7 mph 23.0 mph N/A   Clear
9:53 AM 41.0 °F 35.2 °F 28.9 °F 62% 30.18 in 10.0 mi WNW 9.2 mph 18.4 mph N/A   Clear
10:53 AM 42.1 °F 34.5 °F 30.0 °F 62% 30.18 in 10.0 mi WNW 15.0 mph - N/A   Mostly Cloudy
11:53 AM 44.1 °F 36.2 °F 30.0 °F 58% 30.18 in 10.0 mi West 18.4 mph 29.9 mph N/A   Mostly Cloudy
12:53 PM 45.0 °F 37.4 °F 30.9 °F 58% 30.16 in 10.0 mi WNW 18.4 mph 29.9 mph N/A   Mostly Cloudy
1:53 PM 44.1 °F 37.4 °F 28.9 °F 55% 30.15 in 10.0 mi West 13.8 mph 25.3 mph N/A   Mostly Cloudy
2:53 PM 45.0 °F 39.3 °F 28.9 °F 53% 30.14 in 10.0 mi West 11.5 mph - N/A   Mostly Cloudy
3:53 PM 46.9 °F - 28.0 °F 48% 30.13 in 10.0 mi West 20.7 mph - N/A   Overcast
4:53 PM 44.1 °F 36.2 °F 28.0 °F 53% 30.13 in 10.0 mi West 18.4 mph 21.9 mph N/A   Partly Cloudy
5:53 PM 39.9 °F 33.4 °F 28.9 °F 65% 30.14 in 10.0 mi WSW 10.4 mph - N/A   Clear
6:53 PM 39.9 °F 34.5 °F 28.9 °F 65% 30.15 in 10.0 mi WSW 8.1 mph - N/A   Overcast
7:53 PM 41.0 °F 35.8 °F 30.0 °F 65% 30.15 in 10.0 mi WSW 8.1 mph - N/A   Overcast
8:53 PM 41.0 °F 35.2 °F 30.9 °F 67% 30.14 in 10.0 mi WSW 9.2 mph - N/A   Overcast
9:53 PM 41.0 °F 34.3 °F 33.1 °F 73% 30.14 in 10.0 mi West 11.5 mph - N/A   Overcast
10:53 PM 41.0 °F 34.3 °F 32.0 °F 70% 30.14 in 10.0 mi West 11.5 mph - N/A   Overcast
11:53 PM 39.9 °F 33.9 °F 32.0 °F 73% 30.15 in 10.0 mi West 9.2 mph - N/A   Overcast